Flag for Hungary Weather past 2 weeks in Budapest, Hungary

Now
70 °F

Passing clouds.


Feels Like: 70 °F
Forecast: 58 / 86 °F
Wind: 8 mph from East

Location: Ferenc Liszt International Airport

Current Time: Jul 3, 2015 at 2:12:52 AM

Latest Report: Jul 3, 2015 at 1:30 AM


Visibility: N/A

Pressure: 30.30 "Hg

Humidity: 46%

Dew point: 48 °F

Location of BudapestLocation

Historic Weather in Budapest — Graph

°F

Budapest temperature yesterday

Maximum temperature yesterday: 84 °F (at 12:30 PM)
Minimum temperature yesterday: 59 °F (at 3:30 AM)
Average temperature yesterday: 74 °F

Past Weeks' High & Low Weather Summary

 TemperatureHumidityPressure
High84 °F (Jul 1, 1:30 PM)100% (Jun 24, 5:00 AM)30.30 "Hg (Jun 24, 5:00 AM)
Low45 °F (Jun 22, 4:00 AM)28% (Jun 30, 4:00 PM)29.83 "Hg (Jun 19, 3:30 AM)
Average66 °F62%30.04 "Hg
* Reported Jun 18 1:00 AM — Jul 3 1:00 AM, Budapest, Weather by CustomWeather, © 2015

Note: Actual official high and low records may vary slightly from our data, if they occured in-between our weather recording intervals... More about our weather records

Advertising

Budapest weather history for previous 24 hours

 ConditionsComfort  
Time TempWeatherWind HumidityBarometerVisibility
1:00 AM
Fri, Jul 3
72 °FClear.8 mph44%30.30 "Hg10 mi
12:30 AM72 °FClear.8 mph44%30.27 "Hg10 mi
12:00 AM73 °FClear.8 mph41%30.27 "Hg10 mi
11:30 PM
Thu, Jul 2
72 °FClear.9 mph44%30.27 "Hg10 mi
11:00 PM73 °FClear.8 mph41%30.27 "Hg10 mi
10:30 PM72 °FClear.7 mph47%30.27 "Hg10 mi
10:00 PM73 °FClear.8 mph44%30.24 "Hg10 mi
9:30 PM77 °FSunny.8 mph42%30.24 "Hg10 mi
9:00 PM77 °FSunny.6 mph44%30.24 "Hg10 mi
8:30 PM75 °FSunny.6 mph47%30.21 "Hg10 mi
8:00 PM79 °FSunny.9 mph42%30.21 "Hg10 mi
7:30 PM82 °FSunny.8 mph35%30.21 "Hg10 mi
7:00 PM82 °FSunny.9 mph35%30.21 "Hg10 mi
6:30 PM84 °FPassing clouds.7 mph33%30.21 "HgN/A
6:00 PM84 °FPassing clouds.6 mph33%30.21 "HgN/A
5:30 PM84 °FSunny.7 mph33%30.18 "Hg10 mi
5:00 PM84 °FPassing clouds.7 mph33%30.21 "HgN/A
4:30 PM84 °FPassing clouds.8 mph33%30.21 "HgN/A
4:00 PM84 °FSunny.9 mph35%30.21 "Hg10 mi
3:30 PM84 °FPassing clouds.7 mph35%30.21 "HgN/A
3:00 PM84 °FSunny.6 mph33%30.21 "Hg10 mi
2:30 PM84 °FPassing clouds.6 mph33%30.21 "HgN/A
2:00 PM82 °FSunny.8 mph35%30.21 "Hg10 mi
1:30 PM82 °FPassing clouds.9 mph37%30.21 "HgN/A
1:00 PM82 °FPassing clouds.10 mph37%30.21 "HgN/A
12:30 PM84 °FPassing clouds.10 mph35%30.24 "HgN/A
12:00 PM81 °FPassing clouds.12 mph42%30.24 "HgN/A
11:30 AM81 °FPassing clouds.10 mph42%30.24 "HgN/A
11:00 AM79 °FPassing clouds.14 mph42%30.24 "HgN/A
10:30 AM79 °FPassing clouds.13 mph48%30.24 "HgN/A
10:00 AM79 °FPassing clouds.12 mph48%30.24 "HgN/A
9:30 AM77 °FPassing clouds.12 mph54%30.24 "HgN/A
9:00 AM75 °FPassing clouds.13 mph57%30.21 "HgN/A
8:30 AM75 °FSunny.12 mph57%30.21 "Hg10 mi
8:00 AM73 °FSunny.12 mph57%30.21 "Hg10 mi
7:30 AM72 °FPassing clouds.5 mph69%30.21 "HgN/A
7:00 AM70 °FSunny.8 mph64%30.21 "Hg10 mi
6:00 AM66 °FSunny.6 mph68%30.21 "Hg10 mi
5:30 AM63 °FClear.2 mph77%30.21 "Hg10 mi
5:00 AM61 °FClear.1 mph77%30.18 "Hg10 mi
4:30 AM61 °FPassing clouds.5 mph77%30.18 "HgN/A
4:00 AM61 °FClear.2 mph83%30.18 "Hg10 mi
3:30 AM59 °FClear.5 mph88%30.18 "Hg10 mi
3:00 AM61 °FClear.No wind83%30.18 "Hg10 mi
2:30 AM61 °FClear.1 mph83%30.18 "Hg10 mi
2:00 AM61 °FClear.1 mph83%30.18 "Hg10 mi
Weather by CustomWeather, © 2015

See weather overviewHow to use our weather pages